SHIYAN 12 01 (SY-12 01) (50321 NORAD) Tracking and Keplerian Element Data

This shows tracking and keplerian element data for the satellite.

Feedback or suggestion? Click here.




ElementValue
Catalog50321
NameSHIYAN 12 01 (SY-12 01)
Epoch Orbit158
Epoch Day140.67391921
Epoch Year2022
RAAN245.5571
Inclination0.1988
Eccentricity0.0002688
Argument of Perigee271.0735
Mean Anonmoly10.7084
Mean Motion1.00203913
Decay Rate1.31E-06
L11 50321U 21129A 22140.67391921 .00000131 00000+0 00000+0 0 9996
L22 50321 0.1988 245.5571 0002688 271.0735 10.7084 1.00203913 1580

Live tracking and technical data element details for SHIYAN 12 01 (SY-12 01) (NORAD 50321). SHIYAN 12 01 (SY-12 01) can be tracked NOW for your location showing map with azimuth and elevation plus other details from your city location.

Track the satellite on the map from your city or location and see movement details for azimuth, elevation, latitude, longitude, range, height, and movement on the map or in text.







IsCatalogInMostPopularTable: catalog: 50321, numindb: 24
Update: records affected: 1



GetName: 50321 SHIYAN 12 01 (SY-12 01)

Hit Count: updated at: Mon, 23 May 2022 20:10:53 GMT